sat.trackr.live / text

‹ back to catalog

ONEWEB-0188

NORAD 48231 · 2021-031X

PAYLOAD ACTIVE UNKNOWN

§ Identity

Operator
Country
UK
Launch date
2021-04-25
Launch site
VOSTO
Launch vehicle
Mass (kg)
RCS (m²)

Purposes: comms

External: N2YO · Heavens-Above · Gunter

§ Orbital elements

Epoch: 2026-09-09T11:20:15.766080Z

Period
109.55 min
Inclination
87.8896°
Eccentricity
0.0001866
Mean motion
13.14501856 rev/d
Perigee alt
1,204.4 km
Apogee alt
1,207.2 km
Semi-major
7,583.9 km
B*
-4.4259e-4
RAAN
272.9115°
Arg perigee
92.5801°
Mean anomaly
267.5542°
Rev number
25,921

§ Raw data

ONEWEB-01881 48231U 21031X   26252.47240470 -.00000151  00000+0 -44259-3 0  99952 48231  87.8896 272.9115 0001866  92.5801 267.5542 13.14501856259213

JSON: /api/v1/satellites/48231 · /tle

For live sub-satellite position, see the globe view (requires WebGL).

§ Visibility from observer

Set your observer location to see the next 7 days of passes ≥ 10°. The values pass through the URL so the page stays shareable.

No JS? Fill the form by hand. The geolocation button needs JavaScript.